Preview of NWS' New Version of Forecast
This preview is not operational and should not be used for support decisions.

Regional Weather Roundup (RWR)

Issued by National Weather Service (NWS)

                            
000
ASUS42 KTBW 201818
RWRFL 
FLORIDA REGIONAL WEATHER ROUNDUP
NATIONAL WEATHER SERVICE TAMPA BAY RUSKIN FL
200 PM EDT SAT JUL 20 2019

NOTE: "FAIR" INDICATES FEW OR NO CLOUDS BELOW 12,000 FEET WITH NO
SIGNIFICANT WEATHER AND/OR OBSTRUCTIONS TO VISIBILITY.

FLZ001>010-012>015-112-114-115-201900-
PANHANDLE FLORIDA
  
CITY           SKY/WX    TMP DP  RH WIND       PRES   REMARKS
PENSACOLA      FAIR      81  75  82 SW5       30.10F                  
PENSACOLA NAS  CLOUDY    80  76  87 CALM      30.10F                  
MILTON NAS     PTSUNNY   80  73  79 W6        30.10F                  
CRESTVIEW      FAIR      84  72  67 W7        30.11F                  
DUKE FIELD     FAIR      84  72  67 SW13      30.09F                  
VALPARAISO     PTSUNNY   79  73  80 SW7       30.10S                  
MARY ESTHER    MOSUNNY   80  73  80 SW6       30.09F                  
PANAMA CITY    FAIR      84  72  67 SW12      30.10S                  
TYNDALL AFB    PTSUNNY   84  75  73 SW14      30.10S                  
APALACHICOLA   FAIR      87  74  64 SW15      30.11R HX  95           

STATION/POSITION SKY/WX   TEMP    WIND        PRES    WAVE   SWELL
                          AIR SEA DIR/SP/G            HT/PER HT/PER
                          (F)     (DEG/KT/KT) (MB)    (FT/S) (FT/S)
30.1N   87.6W              80 86  110/ 12/ 14 1019.4R   1/ 3   2/ 9
29.2N   88.2W              81     110/ 14/ 17 1019.2
28.8N   86.0W                 86  360/  8/  8 1020.0R   2/ 3   2/ 4
PANAMA CITY BEAC           80 86  250/ 12/ 15 1020.3R
TOWER C                    76     330/  1/  2 1020.5R
28.5N   84.5W              85     140/  6/  8 1019.6R   2/ 4   2/ 4

$$
FLZ011-016>038-118-127-128-134-139-239-201900-
NORTH FLORIDA
  
CITY           SKY/WX    TMP DP  RH WIND       PRES   REMARKS
MARIANNA       FAIR      80  74  81 CALM      30.09S                  
TALLAHASSEE    FAIR      89  70  53 S10       30.07F THUNDER          
PERRY          TSTM      79  73  80 S3G15     30.10S                  
LIVE OAK       MOSUNNY   90  72  55 CALM      30.08F HX  96           
CROSS CITY     PTSUNNY   90  72  56 S6        30.08F HX  97           
LAKE CITY      FAIR      88  72  58 W5        30.10F                  
GAINESVILLE    PTSUNNY   88  72  58 SE5       30.10F                  
WILLISTON      FAIR      91  73  56 S3        30.08F HX  99           
PALATKA        FAIR      91  73  55 SE5       30.08F HX 100           
MAYPORT NAS    FAIR      88  76  67 SE10      30.08F HX  99           
JACKSONVILLE   PTSUNNY   89  73  59 SW7       30.08S HX  97           
JAX NAS        FAIR      92  70  48 S7        30.08F HX  97           
JAX CECIL      PTSUNNY   93  73  52 VRB3      30.07F HX 102           
FERNANDINA BEA FAIR      87  77  71 E8        30.09S HX  98           
ST AUGUSTINE   FAIR      88  76  67 SE14      30.09F HX  99           
PALM COAST     MOSUNNY   90  75  62 SE9       30.08F HX 100           

STATION/POSITION SKY/WX   TEMP    WIND        PRES    WAVE   SWELL
                          AIR SEA DIR/SP/G            HT/PER HT/PER
                          (F)     (DEG/KT/KT) (MB)    (FT/S) (FT/S)
SHELL POINT      NOT AVBL
KEATON BEACH               82     240/ 14/ 15 1019.0F
CEDAR KEY                  86     220/  5/  6 1018.9F
FERNANDINA                 92 84  110/  6/ 10 1019.7F
30.7N   81.3W                 85                N/A     2/10
MAYPORT                    86 81  120/  8/ 11 1019.3F
31.4N   80.9W              82 85  210/  8/ 10 1019.0F   2/ 9   2/ 9
ST AUGUSTINE               81 78  130/  8/  9 1018.9F

$$
FLZ040-043>046-052-053-057-058-063-144-201900-
INTERIOR CENTRAL FLORIDA
  
CITY           SKY/WX    TMP DP  RH WIND       PRES   REMARKS
OCALA          PTSUNNY   90  73  57 VRB6      30.08F HX  98           
LEESBURG       FAIR      92  72  51 VRB3      30.09S HX  99           
SANFORD        FAIR      90  70  51 E9        30.08F HX  95           
ORLANDO EXEC   FAIR      90  72  55 VRB7      30.08F HX  97           
ORLANDO INTL   PTSUNNY   89  71  55 E8        30.07F HX  95           
KISSIMMEE      FAIR      91  72  53 E5        30.08F HX  98           
WINTER HAVEN   PTSUNNY   95  72  47 VRB5      30.08F HX 103           
LAKELAND       MOSUNNY   90  72  55 VRB5      30.08F HX  96           
SEBRING        FAIR      92  73  53 S8        30.08S HX 100           
OKEECHOBEE     FAIR      82  77  83 N10       30.08F                  

$$
FLZ041-047-054-059-064-141-147-201900-
EAST CENTRAL FLORIDA
  
CITY           SKY/WX    TMP DP  RH WIND       PRES   REMARKS
ORMOND BEACH   MOSUNNY   86  77  74 SE7       30.08F HX  97           
DAYTONA BEACH  PTSUNNY   87  77  72 VRB5      30.09S HX  99           
DELAND         FAIR      88  73  62 S8        30.08F HX  96           
NEW SMYRNA BEA MOSUNNY   86  77  74 E8        30.10F HX  97           
JFK SPACE CTR  MOSUNNY   86  73  66 E6        30.08F                  
TITUSVILLE     MOSUNNY   91  73  55 VRB5      30.09F HX 100           
CAPE CANAVERAL MOSUNNY   89  53  29 E10       30.07F                  
PATRICK AFB    FAIR      87  79  77 E10       30.09F HX 101           
MELBOURNE      FAIR      87  77  72 E10       30.09S HX  99           
VERO BEACH     FAIR      85  74  69 E9        30.10S                  
FT PIERCE      FAIR      84  74  71 E7        30.09S                  

STATION/POSITION SKY/WX   TEMP    WIND        PRES    WAVE   SWELL
                          AIR SEA DIR/SP/G            HT/PER HT/PER
                          (F)     (DEG/KT/KT) (MB)    (FT/S) (FT/S)
28.5N   80.2W              82 84   20/  4/  6 1018.9F   1/ 9   2/ 9
28.9N   78.5W              85 87  170/  8/ 10   N/A     3/ 9   2/ 9
TRIDENT PIER               85 82   70/ 10/ 11 1020.4F
28.4N   80.5W                 83                N/A     1/ 9
27.5N   80.2W                 83                N/A     2/ 3

$$
FLZ050-056-061-142-242-148-248-149-249-151-251-155-255-
160-260-201900-
WEST CENTRAL FLORIDA
  
CITY           SKY/WX    TMP DP  RH WIND       PRES   REMARKS
CRYSTAL RIVER  PTSUNNY   90  73  58 SW6       30.07F HX  98           
INVERNESS      FAIR      91  75  59 CALM      30.08F HX 102           
BROOKSVILLE    FAIR      92  72  51 SE3       30.08F HX  99           
CLEARWATER AIR FAIR      90  72  55 E7        30.06F HX  96           
ST PETE CLEARW FAIR      90  71  53 MISG      30.06F HX  96           
TAMPA INTL     FAIR      89  76  65 SW8       30.07F HX 100           
TAMPA EXEC     FAIR      90  73  58 CALM      30.07F HX  98           
PLANT CITY     FAIR     N/A N/A N/A MISG      30.09F                  
MACDILL AFB    PTSUNNY   89  74  60 SW6       30.06F HX  98           
PETER O KNIGHT PTSUNNY   90  77  66 SW3       30.07F HX 102           
ST PETERSBURG  FAIR      89  72  56 SE3       30.05F HX  96           
SARASOTA       FAIR      90  76  63 W9        30.04F HX 101           
VENICE         FAIR      90  77  66 SW8       30.07S HX 102           

STATION/POSITION SKY/WX   TEMP    WIND        PRES    WAVE   SWELL
                          AIR SEA DIR/SP/G            HT/PER HT/PER
                          (F)     (DEG/KT/KT) (MB)    (FT/S) (FT/S)
27.3N   84.2W                 87                N/A     2/ 4
CLEARWATER BEACH           85 88  210/ 11/ 13 1018.6
MIDDLE TAMPA BAY           86     290/  3/  4 1018.7
VENICE                     86 86  230/  7/  8 1018.0F

$$
FLZ066-069-070-075>078-162-262-165-265-201900-
SOUTHWEST FLORIDA AND KEYS
  
CITY           SKY/WX    TMP DP  RH WIND       PRES   REMARKS
PUNTA GORDA    FAIR      91  73  55 CALM      30.07F HX  99           
FT MYERS       FAIR      92  74  55 NE9       30.04F THUNDER HX 101   
SOUTHWEST INTL FAIR      91  73  55 SE8       30.05F HX  99           
MARCO ISLAND   TSTM      77  74  90 MISG      30.06S                  
IMMOKALEE      FAIR      77  72  83 NE13G18   30.05S THUNDER          
MARATHON       FAIR      92  77  61 SE8       30.04F HX 105           
KEY WEST NAS   PTSUNNY   92  77  61 SE10      30.04F THUNDER HX 105   
KEY WEST INTL  FAIR      90  76  63 E9        30.05F HX 101           

STATION/POSITION SKY/WX   TEMP    WIND        PRES    WAVE   SWELL
                          AIR SEA DIR/SP/G            HT/PER HT/PER
                          (F)     (DEG/KT/KT) (MB)    (FT/S) (FT/S)
NAPLES                     91 87              1017.5F
26.0N   85.6W              85 86  120/  8/  8 1018.0F   2/ 5   2/ 5
DRY TORTUGAS               85     130/  5/  6 1017.5F
SAND KEY                   86     120/  9/ 12 1016.3
SOMBRERO KEY               85     120/  8/ 11 1017.5
LONG KEY                   85                 1016.7

$$
FLZ067-068-071>074-168-172>174-201900-
SOUTHEAST FLORIDA 
  
CITY           SKY/WX    TMP DP  RH WIND       PRES   REMARKS
W PALM BEACH   PTSUNNY   90  74  59 SE14      30.08F HX  99           
BOCA RATON     MOSUNNY   91  75  59 E9        30.08F HX 102           
FT LAUDER-EXEC FAIR      86  75  69 E10       30.07F HX  95           
FT LAUDERDALE  PTSUNNY   87  75  67 SE9       30.06F HX  96           
POMPANO BEACH  PTSUNNY   87  74  64 E9        30.07F HX  95           
PEMBROKE PINES FAIR      89  74  60 E12       30.07F HX  98           
OPA LOCKA      FAIR      90  75  61 SE14      30.06F HX 100           
MIAMI          PTSUNNY   89  74  60 SE15      30.06F THUNDER HX  98   
WEST KENDALL     N/A     90  75  61 SE13      30.05F HX 100           
HOMESTEAD      FAIR      89  74  61 SE12G18   30.04F HX  99           

STATION/POSITION SKY/WX   TEMP    WIND        PRES    WAVE   SWELL
                          AIR SEA DIR/SP/G            HT/PER HT/PER
                          (F)     (DEG/KT/KT) (MB)    (FT/S) (FT/S)
VIRGINIA KEY               85 88   90/  8/ 11 1017.9F
LAKE WORTH                 83 85  140/  9/ 10 1020.1S
FOWEY ROCKS                83 85  120/ 17/ 18 1018.0F
SETTLEMENT POINT           87     170/ 11/ 12 1018.6F

$$